Starlink 3619

operational
NORAD ID: 51787 Int'l Des: 2022-017 Owner: SPXS Country: US Constellation: starlink
LEOCIRCULAR

Starlink 3619について

説明を読み込み中...

リアルタイム位置

3D地球を読み込み中...

次回通過

高度履歴

Altitude vs Time

uPlot chart will show altitude changes over time

軌道要素

1 51787U 22017V 25307.94779214 .00000927 00000-0 76327-4 0 9997
2 51787 53.2156 193.5995 0002065 81.3324 278.7902 15.08845472203292
Epoch: Nov 3, 2025 • Age: 17 hours

現在のステータス

高度 550.2 km
速度 7.59 km/s
衛星直下点 -31.46°S, 121.68°W
打ち上げ日 Feb 25, 2022
運用期間 3.6 years
タイプ internet

技術仕様

分類 Payload
質量 297.00 kg
乾燥質量 275.00 kg
総質量 297.00 kg
長さ 0.20 m
直径 2.80 m
スパン 9.00 m
形状 Box + pan
製造者 SPXS
バスタイプ Starlink
フェーズステータス In Orbit
所有者/国 SPXS/US

大規模コンステレーション

Loading constellations...